Weather Roundup
Issued by NWS Springfield, MO

Home | Current Version | Previous Version | Text Only | Print | Product List | Glossary On
Versions: 1 2 3 4 5 6 7 8 9 10 11 12 13 14 15 16 17 18 19 20 21 22 23 24 25 26 27 28 29 30 31 32 33 34 35 36 37 38 39 40 41 42 43 44 45 46 47 48 49 50
000
NZUS99 KSGF 230707
HRRSGF

HOURLY WEATHER
NATIONAL WEATHER SERVICE SPRINGFIELD MO
100 AM CST THU NOV 23 2017

......SGF CWA......

CITY           SKY/WX    TMP DP  RH WIND       PRES   REMARKS
SPRINGFIELD    CLOUDY    33  24  69 SE5       30.17F WCI  29
JOPLIN         PTCLDY    32  24  72 S5        30.18F WCI  27
WEST PLAINS    PTCLDY    29  19  66 CALM      30.20F
ROLLA          CLOUDY    27  17  66 S6        30.17F WCI  20
OSAGE BEACH    CLOUDY    27  21  78 S3        30.18F
BRANSON        PTCLDY    36  16  44 CALM      30.19F

......SURROUNDING SGF CWA......

CITY           SKY/WX    TMP DP  RH WIND       PRES   REMARKS
CHANUTE        CLOUDY    33  22  63 S9        30.16F WCI  25
PARSONS        CLOUDY    31  23  72 CALM      30.19F
COFFEYVILLE    CLOUDY    32  24  72 S5        30.19F WCI  27
EMPORIA        CLEAR     31  21  66 S8        30.10F WCI  23
GROVE OK       CLOUDY    30  28  93 CALM      30.20F
ROGERS AR      CLOUDY    33  23  66 S3        30.19F
SILOAM SPRINGS CLOUDY    28  23  81 SE5       30.20F WCI  23
HARRISON AR    CLOUDY    30  21  69 CALM      30.19F

......KANSAS AND MISSOURI......

CITY           SKY/WX    TMP DP  RH WIND       PRES   REMARKS
KANSAS CTY INT CLEAR     36  20  52 SW13      30.09F WCI  27
DOWNTOWN KC    CLEAR     38  20  48 SW7       30.11F WCI  33
COLUMBIA       CLEAR     30  17  58 S5        30.16F WCI  25
SEDALIA        CLEAR     33  23  66 S6        30.16F WCI  28
ST JOSEPH      CLEAR     34  20  56 S7        30.09F WCI  28
ST LOUIS       CLOUDY    34  20  56 S3        30.21F
SPIRIT OF STL  CLEAR     33  20  58 CALM      30.20F
KIRKSVILLE     CLOUDY    33  19  56 SW10      30.10F WCI  25
WICHITA        CLEAR     33  23  66 S7        30.12F WCI  27
TOPEKA         CLOUDY    37  21  52 CALM      30.09F
OLATHE         CLEAR     33  21  61 S7        30.12F WCI  27

......TENNESSEE......

CITY           SKY/WX    TMP DP  RH WIND       PRES   REMARKS
MEMPHIS        CLEAR     34  24  67 NE6       30.21F WCI  29
NASHVILLE      CLEAR     30  23  75 CALM      30.19F

......ARKANSAS.......

CITY           SKY/WX    TMP DP  RH WIND       PRES   REMARKS
FAYETTEVILLE   CLOUDY    27  23  85 CALM      30.21F
FT SMITH       CLOUDY    35  26  69 CALM      30.23F
LITTLE ROCK    PTCLDY    31  26  82 S3        30.24F

......OKLAHOMA.......

CITY           SKY/WX    TMP DP  RH WIND       PRES   REMARKS
TULSA          CLOUDY    36  24  62 S6        30.21F WCI  31
PONCA CITY     CLOUDY    39  20  46 S7        30.17F WCI  34
MCALESTER      CLOUDY    31  25  78 CALM      30.23F
OKLAHOMA CITY  CLOUDY    33  22  63 S6        30.19F WCI  28

......IOWA............

CITY           SKY/WX    TMP DP  RH WIND       PRES   REMARKS
DES MOINES     CLEAR     32  17  54 S6        30.00F WCI  26
QUAD CITIES    CLOUDY    35  18  49 SW10      30.12F WCI  27

......ILLINOIS........

CITY           SKY/WX    TMP DP  RH WIND       PRES   REMARKS
QUINCY         CLEAR     29  20  69 S7        30.15F WCI  22
CHICAGO        CLOUDY    33  18  53 SW8       30.15F WCI  26




USA.gov is the U.S. government's official web portal to all federal, state and local government web resources and services.